Date String (YYYY-MM-DD hh:mm:ss) UTC,Instrument flags,Ambient pressure (hPa),Sample flow (lpm),Bypass flow (lpm),Sample temperature (°C),Ambient temperature (°C),ASC tube jacket temperature (°C),LED temperature (°C),Box temperature (°C),Sample RH (%),Span deviation,Mass concentration (μg/m³),Mass concentration (μg/m³),Mass concentration (μg/m³)
DateTimeUTC,F1_M11,P_M11,Q1_M11,Q2_M11,T1_M11,T2_M11,T3_M11,T4_M11,T5_M11,U1_M11,ZSPAN_M11,X0_M11,X2_M11,X1_M11
2022-07-10 07:00:00,,0830.3,5.01,0.00,29.6,28.5,00.0,38.3,31.5,15.8,0000.0,0007.64,0003.56,0003.17
2022-07-10 07:01:00,,0830.2,5.00,0.00,29.6,28.6,00.0,38.3,31.6,15.8,0000.0,0007.39,0003.55,0003.16
2022-07-10 07:02:00,,0830.2,5.01,0.00,29.7,28.6,00.0,38.3,31.6,15.6,0000.0,0007.46,0003.51,0003.14
2022-07-10 07:03:00,,0830.1,5.00,0.00,29.6,27.9,00.0,38.3,31.5,15.5,0000.0,0007.54,0003.49,0003.12
2022-07-10 07:04:00,,0830.1,5.00,0.00,29.6,27.5,00.0,38.2,31.4,15.5,0000.0,0007.99,0003.48,0003.09
2022-07-10 07:05:00,,0830.2,5.00,0.00,29.6,27.5,00.0,38.2,31.3,15.3,0000.0,0008.45,0003.49,0003.06
2022-07-10 07:06:00,,0830.1,4.99,0.00,29.5,27.5,00.0,38.2,31.3,15.4,0000.0,0008.34,0003.47,0003.03
2022-07-10 07:07:00,,0830.1,5.00,0.00,29.5,27.7,00.0,38.2,31.3,15.0,0000.0,0008.00,0003.47,0003.00
2022-07-10 07:08:00,,0830.1,5.01,0.00,29.5,27.8,00.0,38.3,31.4,14.8,0000.0,0008.12,0003.47,0002.96
2022-07-10 07:09:00,,0830.1,5.00,0.00,29.5,28.0,00.0,38.3,31.4,14.9,0000.0,0008.01,0003.43,0002.91
2022-07-10 07:10:00,,0830.1,5.00,0.00,29.5,28.1,00.0,38.3,31.4,15.0,0000.0,0007.86,0003.39,0002.86
2022-07-10 07:11:00,,0830.1,5.01,0.00,29.6,28.2,00.0,38.3,31.5,14.8,0000.0,0007.78,0003.35,0002.82
2022-07-10 07:12:00,,0830.1,5.01,0.00,29.6,28.4,00.0,38.3,31.5,14.6,0000.0,0007.75,0003.31,0002.79
2022-07-10 07:13:00,,0830.1,5.00,0.00,29.6,28.5,00.0,38.3,31.6,14.6,0000.0,0007.67,0003.29,0002.75
2022-07-10 07:14:00,,0830.1,5.00,0.00,29.7,28.6,00.0,38.4,31.6,14.5,0000.0,0007.73,0003.29,0002.73
2022-07-10 07:15:00,,0830.1,5.00,0.00,29.7,28.6,00.0,38.4,31.7,14.5,0000.0,0007.11,0003.27,0002.71
2022-07-10 07:16:00,,0830.1,5.01,0.00,29.7,28.2,00.0,38.3,31.6,14.5,0000.0,0006.71,0003.26,0002.69
2022-07-10 07:17:00,,0830.1,5.00,0.00,29.6,27.2,00.0,38.3,31.4,14.5,0000.0,0006.21,0003.25,0002.68
2022-07-10 07:18:00,,0830.1,5.01,0.00,29.6,26.9,00.0,38.2,31.3,14.5,0000.0,0005.87,0003.23,0002.66
2022-07-10 07:19:00,,0830.1,5.01,0.00,29.5,26.9,00.0,38.2,31.2,14.6,0000.0,0005.62,0003.22,0002.67
2022-07-10 07:20:00,,0830.1,5.00,0.00,29.4,27.0,00.0,38.2,31.1,14.7,0000.0,0005.80,0003.23,0002.66
2022-07-10 07:21:00,,0830.1,5.00,0.00,29.4,27.2,00.0,38.2,31.1,14.7,0000.0,0005.98,0003.23,0002.66
2022-07-10 07:22:00,,0830.1,5.00,0.00,29.4,27.4,00.0,38.2,31.2,14.8,0000.0,0006.10,0003.23,0002.65
2022-07-10 07:23:00,,0830.1,5.00,0.00,29.4,27.6,00.0,38.2,31.2,14.8,0000.0,0006.70,0003.25,0002.66
2022-07-10 07:24:00,,0830.1,5.00,0.00,29.4,27.8,00.0,38.2,31.3,14.8,0000.0,0006.96,0003.25,0002.67
2022-07-10 07:25:00,,0830.1,4.99,0.00,29.4,27.9,00.0,38.2,31.3,14.8,0000.0,0007.32,0003.26,0002.65
2022-07-10 07:26:00,,0830.1,5.00,0.00,29.5,28.1,00.0,38.2,31.3,14.9,0000.0,0007.19,0003.26,0002.66
2022-07-10 07:27:00,,0830.1,5.01,0.00,29.5,28.2,00.0,38.2,31.4,14.9,0000.0,0006.93,0003.25,0002.66
2022-07-10 07:28:00,,0830.1,5.00,0.00,29.5,28.3,00.0,38.2,31.4,14.8,0000.0,0006.85,0003.26,0002.66
2022-07-10 07:29:00,,0830.1,5.00,0.00,29.5,28.4,00.0,38.2,31.5,14.7,0000.0,0006.80,0003.27,0002.67
2022-07-10 07:30:00,,0830.1,4.99,0.00,29.6,28.5,00.0,38.3,31.5,14.7,0000.0,0006.72,0003.26,0002.66
2022-07-10 07:31:00,,0830.2,5.00,0.00,29.6,28.6,00.0,38.3,31.6,14.7,0000.0,0006.62,0003.25,0002.67
2022-07-10 07:32:00,,0830.2,5.01,0.00,29.6,28.7,00.0,38.3,31.6,14.7,0000.0,0007.13,0003.27,0002.66
2022-07-10 07:33:00,,0830.2,5.00,0.00,29.7,28.7,00.0,38.3,31.7,14.7,0000.0,0007.49,0003.28,0002.65
2022-07-10 07:34:00,,0830.1,4.99,0.00,29.7,28.3,00.0,38.3,31.6,14.7,0000.0,0007.51,0003.28,0002.65
2022-07-10 07:35:00,,0830.1,4.98,0.00,29.6,27.3,00.0,38.3,31.4,14.6,0000.0,0007.36,0003.30,0002.64
2022-07-10 07:36:00,,0830.1,5.00,0.00,29.6,26.9,00.0,38.2,31.3,14.6,0000.0,0007.07,0003.29,0002.63
2022-07-10 07:37:00,,0830.1,5.01,0.00,29.5,26.9,00.0,38.2,31.2,14.7,0000.0,0007.28,0003.29,0002.62
2022-07-10 07:38:00,,0830.1,5.00,0.00,29.4,27.0,00.0,38.2,31.2,14.9,0000.0,0007.53,0003.29,0002.63
2022-07-10 07:39:00,,0830.2,5.00,0.00,29.4,27.2,00.0,38.2,31.2,15.1,0000.0,0007.96,0003.29,0002.63
2022-07-10 07:40:00,,0830.1,5.00,0.00,29.4,27.4,00.0,38.2,31.2,15.6,0000.0,0008.09,0003.28,0002.63
2022-07-10 07:41:00,,0830.1,5.00,0.00,29.4,27.6,00.0,38.2,31.2,15.1,0000.0,0008.29,0003.30,0002.63
2022-07-10 07:42:00,,0830.1,4.99,0.00,29.4,27.8,00.0,38.2,31.3,14.9,0000.0,0008.32,0003.31,0002.63
2022-07-10 07:43:00,,0830.1,5.00,0.00,29.4,27.9,00.0,38.2,31.3,14.8,0000.0,0008.08,0003.33,0002.64
2022-07-10 07:44:00,,0830.0,4.99,0.00,29.5,28.1,00.0,38.2,31.3,14.8,0000.0,0007.65,0003.33,0002.65
2022-07-10 07:45:00,,0830.1,5.00,0.00,29.5,28.2,00.0,38.2,31.4,14.8,0000.0,0007.13,0003.29,0002.66
2022-07-10 07:46:00,,0830.1,5.00,0.00,29.5,28.3,00.0,38.2,31.4,14.8,0000.0,0006.94,0003.27,0002.65
2022-07-10 07:47:00,,0830.0,5.01,0.00,29.5,28.4,00.0,38.3,31.5,14.8,0000.0,0006.75,0003.26,0002.67
2022-07-10 07:48:00,,0830.1,4.99,0.00,29.6,28.5,00.0,38.3,31.5,14.7,0000.0,0006.68,0003.27,0002.68
2022-07-10 07:49:00,,0830.1,5.01,0.00,29.6,28.6,00.0,38.3,31.6,14.8,0000.0,0006.36,0003.29,0002.69
2022-07-10 07:50:00,,0830.1,5.01,0.00,29.7,28.7,00.0,38.3,31.6,15.0,0000.0,0005.48,0003.28,0002.69
2022-07-10 07:51:00,,0830.1,4.99,0.00,29.7,28.7,00.0,38.4,31.7,14.8,0000.0,0005.65,0003.30,0002.70
2022-07-10 07:52:00,,0830.1,4.99,0.00,29.7,28.4,00.0,38.3,31.7,14.6,0000.0,0005.83,0003.28,0002.70
2022-07-10 07:53:00,,0830.1,5.00,0.00,29.7,27.7,00.0,38.3,31.5,14.5,0000.0,0006.51,0003.27,0002.70
2022-07-10 07:54:00,,0830.1,5.00,0.00,29.7,27.5,00.0,38.3,31.5,14.5,0000.0,0007.15,0003.27,0002.70
2022-07-10 07:55:00,,0830.1,5.01,0.00,29.6,27.6,00.0,38.3,31.4,14.5,0000.0,0007.96,0003.26,0002.69
2022-07-10 07:56:00,,0830.0,5.01,0.00,29.6,27.7,00.0,38.3,31.4,14.6,0000.0,0008.60,0003.27,0002.68
2022-07-10 07:57:00,,0830.0,5.00,0.00,29.6,27.8,00.0,38.3,31.4,14.6,0000.0,0009.30,0003.28,0002.69
2022-07-10 07:58:00,,0830.0,5.00,0.00,29.6,27.9,00.0,38.3,31.4,14.6,0000.0,0009.50,0003.31,0002.70
2022-07-10 07:59:00,,0830.0,4.99,0.00,29.6,28.1,00.0,38.3,31.4,14.7,0000.0,0009.41,0003.31,0002.70
